Simultaneous Nadir Overpasses (SNOs) Predictions

Prediction of SNOs between LANDSAT-8 and NOAA-19 Satellite Orbit:

Table of predicted SNOs for the next 14.0 days since TLE Epoch: 6/18/2021
Index Date (LANDSAT-8) Time (LANDSAT-8) Lat,Lon (LANDSAT-8) SZA (LANDSAT-8 ) Date (NOAA-19) Time (NOAA-19) Lat,Lon (NOAA-19) SZA (NOAA-19 ) Distance(km) Time Diff (sec)
1 06/18/2021 15:09:01 80.42, -15.80 58.45 06/18/2021 15:08:01 80.42, -15.98 58.41 3.33 60
2 06/18/2021 15:58:28 -80.42, 151.78 121.56 06/18/2021 15:58:56 -80.39, 151.71 121.58 2.74 28
3 06/20/2021 21:32:13 80.40,-111.85 58.37 06/20/2021 21:32:10 80.41,-111.87 58.39 1.92 3
4 06/23/2021 03:05:57 -80.43, -14.97 121.57 06/23/2021 03:05:16 -80.41, -15.02 121.61 1.98 41
5 06/23/2021 03:55:24 80.40, 152.40 58.39 06/23/2021 03:56:18 80.39, 152.56 58.42 2.97 54
6 06/25/2021 08:39:41 80.43, 81.64 58.48 06/25/2021 08:38:28 80.42, 81.66 58.44 1.67 73
7 06/25/2021 09:29:09 -80.40,-111.03 121.58 06/25/2021 09:29:26 -80.42,-111.11 121.57 2.52 17
8 06/27/2021 15:02:53 80.40, -14.45 58.50 06/27/2021 15:02:37 80.42, -14.32 58.52 3.08 16
9 06/27/2021 15:52:18 -80.47, 153.83 121.39 06/27/2021 15:53:32 -80.36, 154.12 121.43 13.35 74
10 06/29/2021 20:36:37 -80.43, 82.43 121.35 06/29/2021 20:35:45 -80.43, 82.36 121.38 1.63 52
11 06/29/2021 21:26:04 80.40,-110.25 58.60 06/29/2021 21:26:46 80.42,-110.33 58.63 2.73 42



Historial Predications of SNOs between LANDSAT-8 and NOAA-19
